Regional Weather Roundup
Issued by NWS Raleigh/Durham, NC

Home | Current Version | Previous Version | Text Only | Print | Product List | Glossary On
Versions: 1 2 3 4 5 6 7 8 9 10 11 12 13 14 15 16 17 18 19 20 21 22 23 24 25 26 27
000
ASUS42 KRAH 210610
RWRRAH
NORTH CAROLINA WEATHER ROUNDUP
NATIONAL WEATHER SERVICE RALEIGH NC
100 AM EST TUE FEB 21 2017

NOTE: "FAIR" INDICATES FEW OR NO CLOUDS BELOW 12,000 FEET WITH NO
SIGNIFICANT WEATHER AND/OR OBSTRUCTIONS TO VISIBILITY.

NCZ001-053-055-056-065-067-210700-
WESTERN NORTH CAROLINA

CITY           SKY/WX    TMP DP  RH WIND       PRES   REMARKS
ASHEVILLE      CLOUDY    43  36  76 CALM      30.20R
JEFFERSON      PTCLDY    49  33  54 CALM      30.22S
MORGANTON      CLOUDY    45  37  72 CALM      30.24R
HICKORY        CLOUDY    46  38  73 NE6       30.19S
RUTHERFORDTON  CLOUDY    47  35  65 CALM      30.19S
MOUNT AIRY     PTCLDY    55  41  58 CALM      30.23S
BOONE          PTCLDY    37  30  78 CALM      30.23S
$$

NCZ021-022-025-041-071-084-088-210700-
CENTRAL NORTH CAROLINA

CITY           SKY/WX    TMP DP  RH WIND       PRES   REMARKS
CHARLOTTE      MOCLDY    55  42  61 E5        30.19S
GREENSBORO     MOCLDY    57  37  47 CALM      30.21R
WINSTON-SALEM  PTCLDY    54  36  50 CALM      30.22R
RALEIGH-DURHAM MOCLDY    57  37  47 E10       30.23S
FORT BRAGG     CLOUDY    51  45  81 CALM      30.21S
FAYETTEVILLE   CLOUDY    53  44  71 CALM      30.22R
BURLINGTON     PTCLDY    51  39  63 CALM      30.21S
LAURINBURG     PTCLDY    48  45  89 CALM      30.22S
$$

NCZ011-015-027-028-043-044-047-080-103-210700-
NORTHEASTERN NORTH CAROLINA

CITY           SKY/WX    TMP DP  RH WIND       PRES   REMARKS
ROCKY MT-WILSO PTCLDY    49  40  71 CALM      30.27R
GREENVILLE     PTCLDY    46  37  71 CALM      30.28R
WASHINGTON     PTCLDY    44  38  77 E6        30.26F
ELIZABETH CITY CLOUDY    45  39  79 NE5       30.28S
MANTEO         PTCLDY    47  44  88 E9        30.27S
CAPE HATTERAS  PTCLDY    54  45  71 NE7       30.24S
$$

NCZ078-087-090-091-093-098-101-210700-
SOUTHEASTERN NORTH CAROLINA

CITY           SKY/WX    TMP DP  RH WIND       PRES   REMARKS
LUMBERTON      CLOUDY    50  47  89 CALM      30.21S
GOLDSBORO      CLOUDY    49  43  80 NE3       30.24R
KINSTON        CLOUDY    48  41  76 CALM      30.27R
KENANSVILLE    NOT AVBL
NEW BERN       PTCLDY    47  44  90 NE5       30.25F
CHERRY POINT   PTCLDY    50  42  74 NE7       30.24F
BEAUFORT       PTCLDY    49  43  80 NE6       30.23F
JACKSONVILLE   CLOUDY    50  41  71 E7        30.24R
WILMINGTON     CLOUDY    54  48  80 E8        30.23R
$$





USA.gov is the U.S. government's official web portal to all federal, state and local government web resources and services.